Location: Kershaw
(34.5481°N, 80.5823°W)
Time: 23:56:10
(UTC+00:00)

Altair - Pass Details

Date: 09 October 2022
Orbit: 1501 x 1682 km, 47.2° (Epoch: 05 December)

Event Time Altitude Azimuth Distance (km) Brightness Sun altitude
Exits shadow 06:07:12 10° 78° (ENE) 3,799 9.7 -58.8°
Drops below altitude 10° 06:07:20 10° 78° (ENE) 3,827 9.8 -58.8°
Sets 06:11:13 0° 65° (ENE) 4,822 10.5 -58.4°
